FW7881 Weather Reports


Display with metric or nautical units.
time (UTC)temp
F
wind
direction
speed
MPH
gust
MPH
rain 1hr
in
rain 24hr
in
rain mn
in
humidity
%
barometer
mb
20260903044558 77 25 0.0 2.0 0.00 0.04 0.04 80 1010.9
20260903043052 77 45 1.0 2.0 0.00 0.04 0.04 79 1011.0
20260903041608 77 0 0.0 2.0 0.00 0.04 0.04 79 1011.2
20260903040057 77 98 0.0 2.0 0.00 0.04 0.04 79 1011.1
20260903034554 78 117 0.0 1.0 0.00 0.04 0.04 78 1011.1
20260903033050 78 151 0.0 1.0 0.00 0.04 0.04 77 1011.3
20260903031557 78 0 0.0 1.0 0.00 0.04 0.04 77 1011.4
20260903030057 79 0 0.0 1.0 0.00 0.04 0.04 76 1011.4
20260903024550 78 0 0.0 1.0 0.00 0.04 0.04 75 1011.2
20260903023057 78 0 0.0 1.0 0.00 0.04 0.04 75 1011.2
20260903021556 78 0 0.0 1.0 0.00 0.04 0.04 75 1011.0
20260903020058 78 0 0.0 1.0 0.00 0.04 0.04 76 1011.1
20260903014611 78 0 0.0 1.0 0.00 0.04 0.04 75 1010.9
20260903013103 79 208 0.0 1.0 0.00 0.04 0.04 74 1010.8
20260903011619 80 0 0.0 1.0 0.00 0.04 0.04 73 1010.8
20260903010108 81 0 0.0 1.0 0.00 0.04 0.04 70 1010.5
20260903004553 83 0 0.0 1.0 0.00 0.04 0.04 67 1010.6
20260903003125 84 0 0.0 0.0 0.00 0.04 0.04 66 1010.6
20260903001601 85 208 0.0 1.0 0.00 0.04 0.04 62 1010.6
20260903000057 85 207 0.0 3.0 0.00 0.04 0.04 60 1010.5
20260902234557 85 184 1.0 2.0 0.00 0.04 0.04 60 1010.6
20260902233049 86 198 0.0 2.0 0.00 0.04 0.04 60 1010.4
20260902231603 86 158 1.0 5.0 0.00 0.04 0.04 59 1010.6
20260902224603 86 199 1.0 6.0 0.00 0.04 0.04 58 1010.6
20260902223102 87 192 1.0 3.0 0.00 0.04 0.04 58 1010.5
20260902221559 87 165 1.0 4.0 0.00 0.04 0.04 58 1010.5
20260902220058 86 168 2.0 5.0 0.00 0.04 0.04 57 1010.7
20260902214600 86 197 0.0 4.0 0.00 0.04 0.04 59 1010.7
20260902213104 86 131 1.0 4.0 0.00 0.04 0.04 58 1010.9
20260902211558 86 147 2.0 4.0 0.00 0.04 0.04 57 1011.0
20260902210056 85 111 3.0 7.0 0.00 0.04 0.04 58 1011.1
20260902204554 85 14 1.0 4.0 0.00 0.04 0.04 59 1011.2
20260902203050 85 132 0.0 4.0 0.00 0.04 0.04 60 1011.2
20260902201559 84 99 1.0 5.0 0.00 0.04 0.04 61 1011.4
20260902200055 84 2 2.0 6.0 0.00 0.04 0.04 61 1011.7
20260902194601 84 236 0.0 4.0 0.00 0.04 0.04 61 1011.9
20260902193051 84 99 1.0 3.0 0.00 0.04 0.04 61 1012.0
20260902191557 83 308 1.0 6.0 0.00 0.04 0.04 61 1012.2
20260902190057 83 127 3.0 5.0 0.00 0.04 0.04 60 1012.3
20260902184558 83 137 2.0 4.0 0.00 0.04 0.04 63 1012.1
20260902183057 82 338 3.0 5.0 0.00 0.04 0.04 63 1012.2
20260902181552 83 137 1.0 4.0 0.00 0.04 0.04 62 1012.3
20260902174555 82 46 2.0 4.0 0.00 0.04 0.04 64 1012.7
20260902173050 81 36 1.0 2.0 0.00 0.04 0.04 66 1013.2
20260902171603 79 174 1.0 3.0 0.00 0.04 0.04 69 1013.6
20260902170053 77 249 1.0 6.0 0.00 0.04 0.04 70 1013.8
20260902164553 78 204 2.0 4.0 0.00 0.05 0.04 68 1013.4
20260902163057 78 151 2.0 4.0 0.00 0.05 0.04 68 1013.4
20260902161558 78 193 2.0 4.0 0.00 0.05 0.04 68 1013.4
20260902160103 79 56 1.0 5.0 0.00 0.05 0.04 67 1013.3
20260902154601 78 51 1.0 4.0 0.00 0.05 0.04 68 1013.0
20260902153054 77 130 1.0 4.0 0.00 0.05 0.04 71 1013.0
20260902151558 76 84 0.0 4.0 0.00 0.05 0.04 73 1013.0
20260902150052 74 63 1.0 4.0 0.00 0.05 0.04 75 1013.0
20260902144558 72 120 1.0 4.0 0.00 0.05 0.04 78 1012.9
20260902143102 72 47 1.0 5.0 0.00 0.05 0.04 77 1013.2
20260902141602 71 143 1.0 4.0 0.00 0.05 0.04 79 1013.2
20260902140050 68 0 0.0 2.0 0.00 0.05 0.04 83 1013.3
20260902134602 67 0 0.0 3.0 0.00 0.05 0.04 85 1013.1
20260902133102 67 35 0.0 3.0 0.00 0.05 0.04 84 1013.1
20260902131601 67 34 0.0 4.0 0.00 0.05 0.04 85 1013.2
20260902130057 66 0 0.0 2.0 0.00 0.05 0.04 87 1013.0
20260902124556 65 0 0.0 1.0 0.00 0.05 0.04 88 1013.1
20260902123104 65 23 0.0 1.0 0.00 0.05 0.04 89 1013.1
20260902121601 65 39 1.0 2.0 0.00 0.05 0.04 89 1012.8
20260902120101 65 0 0.0 1.0 0.00 0.05 0.04 89 1013.1
20260902114556 65 0 0.0 1.0 0.00 0.05 0.04 89 1013.2
20260902113056 65 175 0.0 0.0 0.00 0.05 0.04 88 1013.1
20260902111553 65 176 1.0 3.0 0.00 0.05 0.04 88 1013.8
20260902110049 65 168 0.0 2.0 0.00 0.05 0.04 88 1013.8
20260902104616 65 156 0.0 1.0 0.00 0.05 0.04 87 1013.8
20260902103057 65 0 0.0 2.0 0.00 0.05 0.04 87 1013.9
20260902101549 65 0 0.0 2.0 0.00 0.05 0.04 88 1013.9
20260902100108 65 219 0.0 1.0 0.00 0.05 0.04 87 1013.9
20260902094558 65 0 0.0 1.0 0.00 0.05 0.04 86 1013.2
20260902093112 65 187 2.0 6.0 0.00 0.05 0.04 86 1012.8
20260902091551 65 207 4.0 6.0 0.00 0.05 0.04 86 1012.9
20260902090050 66 178 2.0 4.0 0.00 0.05 0.04 85 1012.4
20260902084604 66 44 3.0 7.0 0.00 0.05 0.04 84 1011.2
20260902083107 65 30 2.0 5.0 0.00 0.05 0.04 85 1011.4
20260902081612 65 44 2.0 3.0 0.01 0.05 0.04 86 1012.2
20260902080058 66 8 0.0 2.0 0.03 0.05 0.04 86 1012.9
20260902074556 66 0 0.0 1.0 0.04 0.05 0.04 84 1013.2
20260902073056 66 122 1.0 5.0 0.04 0.05 0.04 81 1012.5
20260902071602 67 79 1.0 4.0 0.03 0.04 0.03 82 1012.6
20260902070053 69 156 3.0 12.0 0.01 0.02 0.01 83 1014.0
20260902064551 70 192 5.0 13.0 0.00 0.01 0.00 83 1015.0
20260902063117 70 205 5.0 9.0 0.00 0.01 0.00 82 1015.5
20260902060118 71 349 0.0 1.0 0.00 0.01 0.00 78 1013.6
20260902054557 71 355 1.0 2.0 0.00 0.01 0.00 78 1012.7
20260902053056 71 0 0.0 1.0 0.00 0.01 0.00 80 1013.1
20260902051604 71 0 0.0 1.0 0.00 0.01 0.00 79 1013.6